FW1140 Weather Reports


time (UTC)temp
C
wind
direction
speed
KPH
gust
KPH
rain 1hr
cm
rain 24hr
cm
rain mn
cm
humidity
%
barometer
mb
20260906144518 22 114 3.2 9.7 0.00 0.00 0.00 95 1011.5
20260906143108 22 114 6.4 9.7 0.00 0.00 0.00 95 1011.2
20260906141526 22 101 4.8 11.3 0.00 0.00 0.00 95 1011.4
20260906140042 22 133 4.8 11.3 0.00 0.00 0.00 95 1011.4
20260906134553 22 118 4.8 11.3 0.00 0.00 0.00 95 1011.7
20260906133020 22 147 4.8 9.7 0.00 0.00 0.00 95 1011.8
20260906131537 22 128 3.2 8.0 0.00 0.00 0.00 95 1011.8
20260906130045 21 86 1.6 6.4 0.00 0.00 0.00 95 1011.8
20260906124528 21 117 1.6 6.4 0.00 0.00 0.00 95 1011.6
20260906123043 21 99 1.6 4.8 0.00 0.00 0.00 95 1011.4
20260906121613 21 99 3.2 6.4 0.00 0.00 0.00 95 1011.2
20260906120131 21 113 3.2 8.0 0.00 0.00 0.00 95 1011.1
20260906114534 21 123 4.8 9.7 0.00 0.00 0.00 95 1011.0
20260906113058 21 82 0.0 8.0 0.00 0.00 0.00 95 1011.0
20260906111609 21 81 1.6 8.0 0.00 0.00 0.00 95 1011.1
20260906110006 21 81 4.8 9.7 0.00 0.00 0.00 95 1011.0
20260906104553 21 119 1.6 4.8 0.00 0.00 0.00 95 1011.1
20260906103054 21 131 3.2 8.0 0.00 0.00 0.00 95 1011.1
20260906101605 21 101 4.8 8.0 0.00 0.00 0.00 95 1011.2
20260906100010 21 131 4.8 9.7 0.00 0.00 0.00 94 1011.2
20260906094524 21 113 4.8 8.0 0.00 0.00 0.00 94 1011.2
20260906093119 21 117 3.2 9.7 0.00 0.00 0.00 94 1011.1
20260906091543 21 123 4.8 8.0 0.00 0.00 0.00 94 1011.0
20260906090039 21 119 4.8 8.0 0.00 0.00 0.00 94 1011.1
20260906084551 21 127 4.8 8.0 0.00 0.00 0.00 94 1011.0
20260906083059 21 111 3.2 8.0 0.00 0.00 0.00 94 1010.9
20260906081600 21 136 4.8 9.7 0.00 0.00 0.00 94 1010.8
20260906080047 21 135 4.8 12.9 0.00 0.00 0.00 94 1010.7
20260906074546 21 124 4.8 11.3 0.00 0.00 0.00 94 1010.8
20260906073008 21 129 8.0 14.5 0.00 0.00 0.00 93 1010.4
20260906071521 21 100 4.8 12.9 0.00 0.00 0.00 93 1010.7
20260906070025 21 123 4.8 9.7 0.00 0.00 0.00 93 1010.9
20260906064534 21 128 4.8 11.3 0.00 0.00 0.00 93 1011.0
20260906063045 21 118 3.2 11.3 0.00 0.00 0.00 92 1010.9
20260906061600 21 155 8.0 12.9 0.00 0.00 0.00 92 1010.8
20260906054611 21 123 3.2 9.7 0.00 0.00 0.00 92 1011.4
20260906053023 21 124 4.8 9.7 0.00 0.00 0.00 91 1011.4
20260906051517 21 121 4.8 9.7 0.00 0.00 0.00 91 1011.3
20260906050028 20 121 4.8 8.0 0.00 0.00 0.00 90 1011.4
20260906044506 20 117 3.2 6.4 0.00 0.00 0.00 90 1011.5
20260906043015 21 113 1.6 8.0 0.00 0.00 0.00 89 1011.4
20260906041517 21 131 1.6 4.8 0.00 0.00 0.00 88 1011.3
20260906040016 21 84 3.2 6.4 0.00 0.00 0.00 87 1011.1
20260906034527 21 129 1.6 4.8 0.00 0.00 0.00 87 1010.7
20260906033028 21 114 3.2 6.4 0.00 0.00 0.00 86 1010.8
20260906031506 21 134 3.2 6.4 0.00 0.00 0.00 87 1011.0
20260906030021 21 134 1.6 4.8 0.00 0.00 0.00 86 1011.0
20260906024524 21 134 3.2 6.4 0.00 0.00 0.00 87 1010.6
20260906023044 21 134 3.2 4.8 0.00 0.00 0.00 86 1010.4
20260906021610 21 134 1.6 4.8 0.00 0.00 0.00 85 1010.2
20260906020107 22 109 1.6 4.8 0.00 0.00 0.00 84 1010.2
20260906014508 22 109 1.6 3.2 0.00 0.00 0.00 82 1010.1
20260906013042 23 109 1.6 6.4 0.00 0.00 0.00 80 1010.2
20260906011606 23 84 1.6 4.8 0.00 0.00 0.00 78 1010.1
20260906010020 24 115 3.2 12.9 0.00 0.00 0.00 75 1010.0
20260906004507 25 110 6.4 12.9 0.00 0.00 0.00 74 1010.0
20260906003109 25 97 3.2 9.7 0.00 0.00 0.00 72 1009.9
20260906001511 26 146 9.7 20.9 0.00 0.00 0.00 69 1009.7
20260906000035 27 96 8.0 20.9 0.00 0.00 0.00 68 1009.4
20260905234529 27 127 9.7 20.9 0.00 0.00 0.00 67 1009.4
20260905233028 27 92 9.7 22.5 0.00 0.00 0.00 66 1009.4
20260905231540 28 97 8.0 20.9 0.00 0.00 0.00 66 1009.4
20260905230018 -17 0.0 0.0 0.00 0.00 0.00 1009.4
20260905224559 -17 0.0 0.0 0.00 0.00 0.00 1009.3
20260905223003 -17 0.0 0.0 0.00 0.00 0.00 1009.1
20260905221525 -17 0.0 0.0 0.00 0.00 0.00 1008.9
20260905220040 -17 0.0 0.0 0.00 0.00 0.00 1008.8
20260905214545 -17 0.0 0.0 0.00 0.00 0.00 1009.0
20260905213019 -17 0.0 0.0 0.00 0.00 0.00 1009.1
20260905211642 -17 0.0 0.0 0.00 0.00 0.00 1009.2
20260905210058 -17 0.0 0.0 0.00 0.00 0.00 1009.2
20260905204605 -17 0.0 0.0 0.00 0.00 0.00 1009.3
20260905203016 -17 0.0 0.0 0.00 0.00 0.00 1009.1
20260905201607 -17 0.0 0.0 0.00 0.00 0.00 1009.2
20260905194558 -17 0.0 0.0 0.00 0.00 0.00 1009.4
20260905193001 29 126 6.4 25.7 0.00 0.00 0.00 60 1009.2
20260905191556 29 69 8.0 14.5 0.00 0.00 0.00 59 1009.4
20260905190111 28 95 8.0 17.7 0.00 0.00 0.00 61 1009.6
20260905184514 28 128 6.4 17.7 0.00 0.00 0.00 63 1009.7
20260905183044 27 105 11.3 20.9 0.00 0.00 0.00 63 1009.8
20260905181605 27 91 9.7 20.9 0.00 0.00 0.00 65 1009.8
20260905180038 27 87 6.4 20.9 0.00 0.00 0.00 67 1010.0
20260905174549 26 119 9.7 20.9 0.00 0.00 0.00 70 1010.2
20260905173045 26 102 9.7 19.3 0.00 0.00 0.00 70 1010.2
20260905171609 25 122 6.4 19.3 0.00 0.00 0.00 73 1010.4
20260905170019 23 144 8.0 16.1 0.00 0.00 0.00 77 1010.5
20260905164535 24 88 6.4 16.1 0.00 0.00 0.00 77 1010.9
20260905163035 23 80 6.4 14.5 0.00 0.00 0.00 78 1010.7
20260905161532 23 117 6.4 17.7 0.00 0.00 0.00 79 1010.9
20260905160040 22 85 6.4 14.5 0.00 0.00 0.00 82 1011.1
20260905154555 21 77 6.4 12.9 0.00 0.00 0.00 86 1011.0
20260905153001 22 85 6.4 12.9 0.00 0.00 0.00 86 1010.9
20260905151520 20 123 4.8 12.9 0.00 0.00 0.00 91 1010.9
20260905150029 20 68 4.8 12.9 0.00 0.00 0.00 93 1011.0